Temp_Advection
nan nan nan nan nan nan nan nan nan nan nan nan nan nan nan nan nan nan nan nan nan nan nan nan nan nan nan nan nan nan nan nan nan nan nan nan nan nan nan nan nan nan
nan 0 0 0 -0 -0 -0 0 0 0 0 0 0 0 0 0 0 0 0 0 0 0 0 0 0 0 -0 -0 -0 -0 -0 -0 -0 -0 -0 -0 0 0 0 0 -0 nan
nan -0 -0 0 0 0 0 0 0 0 0 0 0 0 0 0 0 0 0 0 0 0 0 0 0 0 0 -0 -0 -0 -0 -0 -0 -0 -0 -0 0 0 0 -0 -0 nan
nan -0 -0 0 0 1 0 0 -0 0 0 0 0 0 0 0 0 0 0 0 0 0 0 0 0 0 0 0 0 -0 -0 -0 -0 -0 -0 -0 -0 0 0 -0 -0 nan
nan 0 0 0 0 0 0 -0 -0 0 0 0 0 -0 0 0 0 0 0 0 -0 -0 0 0 0 0 0 0 -0 -0 -0 -0 -0 -0 -0 -0 -0 0 0 -0 -0 nan
nan 0 0 0 0 0 0 0 0 0 0 0 -0 -0 0 0 0 0 0 -0 -0 -0 -0 0 0 0 0 0 -0 -0 -0 -0 -0 0 0 -0 -0 0 0 -0 -0 nan
nan 1 1 0 0 0 0 0 0 0 0 0 0 0 0 0 0 0 0 0 -0 0 -0 0 0 0 0 0 -0 -0 -0 -0 -0 0 0 0 -0 0 0 -0 -0 nan
nan 1 0 1 1 1 1 0 0 0 0 0 -0 -0 0 0 0 0 0 -0 0 0 0 0 0 0 0 0 0 -0 -0 -0 -0 0 0 0 -0 0 0 -0 -0 nan
nan -0 0 1 1 1 1 0 0 -0 0 0 0 0 0 0 0 0 -0 -0 -0 -0 0 0 0 0 0 0 0 0 -0 -0 -0 0 0 -0 0 0 0 -0 -0 nan
nan -0 1 2 2 1 0 -0 -0 -0 -0 0 1 0 -0 0 0 0 -0 -0 -0 -0 -0 0 0 -0 -0 0 0 0 -0 -0 -0 0 0 0 0 0 -0 -1 -0 nan
nan 1 1 1 2 -0 -1 -1 -0 -0 -0 0 1 0 -0 0 0 0 0 -0 -1 -1 -0 0 0 -0 -0 0 0 0 -0 -0 -0 -0 -0 0 0 0 -0 -1 -0 nan
nan 1 0 1 0 -2 -2 -0 0 -0 -1 -0 0 0 -0 0 0 0 -0 -1 -1 -1 -0 0 0 -0 -0 0 0 0 0 0 -0 -0 0 0 0 -0 -0 -0 -0 nan
nan 0 1 0 -2 -2 -0 1 1 -0 -1 -0 1 1 0 0 0 0 -0 -0 -0 -1 -0 0 0 -0 -0 0 0 0 0 0 -0 -0 0 0 0 -0 -0 -0 0 nan
nan 1 0 -1 -1 -0 1 1 1 0 -0 -0 1 1 0 -0 0 0 0 0 0 -1 -0 0 0 0 -0 0 0 0 0 0 -0 -0 0 0 0 0 -0 -0 0 nan
nan 1 -0 0 1 1 1 1 0 0 0 0 0 1 1 1 1 1 1 0 0 -0 -0 0 0 -0 -0 -0 0 0 0 0 0 0 0 0 0 0 -0 -0 -0 nan
nan 1 0 1 1 1 0 1 0 0 1 0 0 1 2 1 1 1 1 1 -0 -1 -0 0 -0 -1 -1 -0 0 0 1 0 0 0 0 0 0 0 -0 -0 -0 nan
nan 1 0 1 1 0 0 1 1 1 0 0 1 2 1 1 1 1 1 1 -0 -1 -0 -0 -1 -2 -1 0 0 1 1 1 1 1 0 0 0 0 -0 -0 0 nan
nan 1 -0 0 1 1 2 2 1 -0 -0 1 1 1 1 1 1 1 1 1 -0 -1 -1 -1 -1 -2 -1 0 1 1 1 1 1 1 1 0 0 -0 0 0 0 nan
nan 0 -0 1 1 2 2 1 -1 -1 -0 0 0 1 1 1 1 1 1 1 0 -0 -1 -1 -1 -1 -0 1 1 1 1 1 1 1 1 0 -0 -0 0 0 0 nan
nan -0 1 2 2 2 1 -1 -1 -1 -0 1 1 1 1 1 1 1 1 0 0 -0 -1 -2 -1 -1 -0 1 1 1 1 1 1 1 1 1 0 -0 0 0 0 nan
nan 2 2 2 2 2 0 -0 0 -0 -0 2 2 1 1 2 1 1 0 1 0 -0 -1 -2 -2 -1 0 1 1 1 1 1 1 1 1 1 0 0 0 0 0 nan
nan 2 1 1 2 1 -0 -1 -1 -1 0 1 1 1 2 1 -0 0 1 0 -0 -0 -1 -2 -2 -1 -0 1 1 1 1 1 1 1 1 1 0 0 0 0 0 nan
nan -1 -1 -0 -0 -2 -2 -2 -2 -1 0 0 0 1 1 -1 1 3 2 -2 -2 -1 -1 -2 -2 -2 -0 1 1 1 1 1 1 1 1 1 1 0 0 0 0 nan
nan -1 1 1 -1 -2 -2 -1 -0 1 1 0 1 1 -1 1 5 5 1 -3 -4 -2 -1 -1 -1 -1 -0 1 1 1 1 2 2 2 1 1 1 0 0 0 0 nan
nan 2 2 1 -0 0 1 1 2 2 0 1 2 1 1 4 6 3 -1 -3 -3 -2 -1 -0 -0 -0 -0 0 1 1 2 3 3 2 1 1 1 0 0 1 0 nan
nan nan nan nan nan nan nan nan nan nan nan nan nan nan nan nan nan nan nan nan nan nan nan nan nan nan nan nan nan nan nan nan nan nan nan nan nan nan nan nan nan nan
Wind_Speed
38 36 35 35 35 34 34 34 33 33 31 30 29 28 26 24 22 21 21 21 21 21 21 22 21 20 19 18 17 16 16 15 15 14 13 13 12 12 13 13 14 14
39 38 37 36 36 34 33 32 32 32 31 29 29 28 27 26 24 22 21 20 21 21 22 22 22 21 20 19 18 17 17 16 16 15 15 14 13 13 14 14 14 13
40 40 39 38 37 36 34 33 33 31 30 29 28 28 27 27 26 24 22 21 21 21 22 23 22 22 21 19 18 18 18 18 17 17 16 16 14 14 14 14 14 13
42 41 40 39 38 37 35 35 34 32 31 31 30 28 27 27 27 26 24 23 22 22 23 23 23 22 21 20 19 19 19 19 18 18 18 18 16 15 15 14 14 13
43 42 41 41 40 38 37 36 35 33 32 31 31 30 29 28 27 27 26 25 24 24 24 24 24 23 22 20 20 20 20 20 20 19 20 19 18 16 16 15 14 13
45 44 43 42 41 40 39 38 36 35 34 32 31 30 30 30 29 29 28 27 26 25 25 25 25 24 24 22 21 22 22 22 22 21 21 20 19 19 18 16 15 14
46 45 44 43 43 42 41 40 39 37 35 33 32 31 30 31 30 31 30 29 28 27 26 26 26 25 25 23 23 23 23 23 23 23 23 22 21 21 20 18 17 16
46 46 45 45 44 44 43 42 41 39 37 35 34 33 31 31 31 31 32 32 31 30 29 28 27 26 25 24 24 24 24 24 25 25 25 24 23 22 21 20 19 18
46 46 45 45 45 45 45 44 42 40 39 37 36 35 33 33 32 31 32 33 33 33 32 31 30 28 27 26 25 25 25 25 26 26 26 26 25 24 23 22 21 20
47 47 46 46 46 47 46 45 44 42 41 39 38 37 36 34 33 32 32 33 35 35 35 34 33 31 29 28 26 26 26 26 27 27 27 27 26 25 23 23 23 22
49 48 47 47 47 47 46 44 44 43 42 41 40 39 38 36 34 33 33 34 36 37 37 36 36 34 32 29 28 28 27 28 28 28 28 28 27 25 24 23 23 23
51 50 49 49 48 47 45 44 44 43 42 41 40 40 40 38 36 35 34 35 36 37 38 37 37 36 34 31 30 29 29 29 30 30 29 29 28 26 25 24 24 23
53 52 51 50 48 46 45 44 44 44 43 41 40 41 41 40 38 36 35 36 36 37 38 38 38 38 35 32 31 31 31 30 31 31 31 31 29 27 26 26 25 24
54 53 51 50 49 47 46 46 45 44 43 42 41 41 42 40 38 37 36 36 36 37 38 39 39 39 37 35 34 33 33 32 32 32 32 32 31 29 28 28 27 26
54 53 52 51 50 48 48 47 47 45 44 43 42 42 42 40 39 37 37 37 37 37 39 40 41 41 39 37 36 35 35 34 33 33 33 33 32 30 29 29 29 29
53 52 52 52 51 50 50 49 48 47 45 44 43 42 42 42 40 39 39 39 38 38 40 41 43 43 41 39 37 36 36 36 35 34 34 33 32 31 30 30 30 30
52 51 52 52 52 51 51 49 49 48 46 45 44 44 44 43 42 41 40 40 39 39 40 43 45 45 43 40 38 37 37 37 36 35 34 34 33 32 32 31 30 30
51 52 52 51 51 51 51 50 49 48 47 46 45 45 44 44 44 43 41 40 40 41 42 44 46 46 44 41 39 38 38 38 38 36 35 35 34 33 32 31 31 30
51 52 52 52 51 51 50 50 49 49 48 47 46 45 45 45 45 43 42 41 42 42 43 44 46 47 45 42 40 39 39 39 39 38 37 36 34 33 32 31 31 31
51 51 52 52 51 51 50 50 50 49 49 48 48 47 46 47 47 45 44 43 43 43 43 44 46 48 46 43 42 41 40 40 40 39 37 36 35 34 33 32 31 31
52 52 52 52 51 51 50 50 50 49 49 49 49 49 49 48 47 46 45 45 44 43 43 44 46 48 47 45 43 42 41 41 41 40 38 37 36 35 34 33 32 31
50 50 51 51 50 50 50 50 50 50 49 49 49 50 49 48 48 48 47 46 45 44 44 45 46 48 47 46 44 43 42 42 42 41 40 39 37 36 35 34 33 30
49 49 49 49 49 50 50 50 50 49 49 48 48 49 49 49 49 47 45 45 46 45 45 45 46 47 48 46 45 44 44 43 43 42 41 41 38 36 35 35 33 31
46 47 48 49 50 50 50 49 49 49 49 48 48 48 50 51 49 45 43 45 48 47 46 46 45 46 47 46 45 45 45 45 43 42 42 41 39 37 36 35 33 31
44 46 48 48 49 49 49 49 49 49 49 49 49 49 49 48 45 43 43 45 47 48 47 46 45 45 46 46 45 46 46 45 43 42 42 41 39 37 36 35 34 32
43 45 47 47 47 47 48 48 48 48 49 48 49 50 50 47 44 42 42 44 47 48 47 47 46 46 46 47 46 45 45 44 43 43 42 41 40 38 37 36 35 34
Wind_Direction
229 229 230 232 234 236 237 238 238 238 238 237 235 233 232 234 236 237 239 240 242 245 246 246 245 245 247 247 247 247 248 249 249 248 245 243 241 239 239 240 239 237
231 231 231 232 233 235 236 237 238 238 238 237 236 234 233 234 235 235 237 240 242 244 245 246 244 241 242 244 243 243 244 245 245 245 241 238 237 236 237 237 238 238
232 233 233 233 234 234 235 236 237 238 238 237 235 234 233 233 234 234 234 236 239 242 242 243 242 240 240 241 241 241 241 241 242 243 240 237 234 233 235 234 234 238
233 234 234 235 236 236 236 237 237 238 238 238 235 233 232 232 233 234 233 233 236 239 240 241 241 241 241 240 239 238 238 238 239 239 238 235 232 230 231 231 231 234
233 234 235 236 237 238 238 238 239 239 239 239 237 234 232 231 232 234 234 232 233 236 238 239 241 242 241 240 238 236 235 234 235 235 234 233 230 229 229 229 229 231
235 235 235 236 237 238 238 239 239 239 240 240 239 236 233 232 232 233 234 233 232 234 237 239 240 241 241 239 237 234 232 231 232 232 233 234 230 229 229 227 228 230
236 236 236 236 237 238 238 238 239 240 240 240 240 238 235 234 233 232 233 233 232 233 235 238 239 239 240 239 236 233 231 230 230 230 233 234 231 230 230 228 227 229
237 237 238 238 237 238 238 238 238 239 239 240 240 239 237 235 234 233 233 233 233 233 234 236 238 238 238 237 235 233 231 231 230 230 232 232 232 232 231 230 229 229
238 239 239 239 238 238 238 239 239 239 239 239 239 239 238 237 235 234 233 233 233 234 233 235 237 238 237 236 235 233 232 232 231 232 233 233 233 233 232 231 231 230
239 239 240 239 238 238 238 239 239 240 240 239 239 239 238 237 236 235 234 233 232 232 233 234 235 236 236 235 234 233 233 232 233 234 234 234 234 235 234 232 232 232
239 240 240 239 239 238 239 239 239 240 240 240 239 239 239 237 236 235 235 233 231 231 231 232 234 235 236 234 234 234 233 233 233 234 234 235 235 236 235 233 234 235
239 239 239 239 239 239 240 241 240 240 240 240 240 239 240 238 236 235 235 234 232 230 230 231 233 234 235 235 234 235 234 233 233 233 234 235 236 236 235 234 235 236
238 239 239 239 240 241 241 241 241 240 240 241 240 240 240 239 237 235 235 235 234 232 231 231 232 233 233 234 234 235 234 234 234 233 234 235 235 235 234 234 234 236
238 239 239 240 241 242 241 241 241 241 241 241 241 240 240 239 237 236 235 235 235 234 232 232 232 232 231 231 233 234 234 233 234 234 234 235 235 235 234 233 233 235
238 238 239 240 241 241 241 241 241 241 241 241 241 241 240 239 238 236 235 235 235 234 233 233 233 232 230 229 230 232 233 232 233 233 234 235 235 235 234 233 232 233
237 237 239 239 239 240 240 240 240 240 240 240 240 241 241 240 239 237 236 236 235 233 233 234 234 232 229 228 228 230 232 233 232 233 234 235 235 235 234 233 232 233
237 236 237 238 238 238 239 239 239 240 239 239 240 240 240 240 239 237 236 236 235 233 233 234 235 233 230 227 227 229 231 233 233 233 234 235 236 235 234 234 233 234
235 235 236 237 237 237 237 237 238 239 239 239 239 239 239 239 239 238 236 236 235 234 233 234 235 235 232 229 228 228 230 233 234 234 234 235 236 236 235 235 234 235
233 233 235 236 236 236 236 236 237 238 239 239 239 239 239 239 239 238 237 236 236 235 234 233 235 236 233 230 229 229 230 233 235 234 234 235 236 237 237 236 235 236
232 233 234 235 235 235 234 235 237 238 239 239 239 238 238 239 239 239 238 237 237 236 236 234 235 236 234 232 231 230 230 233 236 236 236 236 236 237 237 238 236 236
232 232 233 233 234 233 234 235 236 237 238 238 238 238 238 239 239 239 239 239 238 238 238 237 235 236 235 233 232 232 231 233 235 237 238 237 237 236 237 238 238 237
231 231 231 232 233 232 233 234 236 237 238 237 238 239 238 238 239 239 239 240 240 239 240 239 237 236 236 234 233 232 232 233 234 236 238 238 237 236 236 237 237 235
232 233 233 233 233 234 235 236 237 238 238 237 237 237 237 237 238 238 237 238 239 239 240 241 239 238 236 235 234 233 233 233 233 234 236 238 237 236 235 235 235 233
236 238 237 236 236 236 237 238 239 239 238 238 237 236 237 238 238 236 235 237 238 239 240 241 242 241 240 237 235 235 235 234 234 233 235 237 237 235 235 234 233 230
239 239 238 237 239 240 239 239 239 239 239 239 238 237 237 237 235 234 234 236 238 239 240 241 242 243 243 241 238 237 237 237 235 234 235 236 236 234 233 232 231 228
238 238 239 239 240 242 241 240 240 241 241 240 239 239 238 236 234 233 233 235 238 238 239 240 241 241 243 243 241 239 239 239 237 235 234 235 234 233 232 230 228 226
Height
1525 1528 1530 1532 1534 1536 1538 1540 1543 1545 1547 1549 1551 1553 1555 1556 1558 1560 1561 1562 1563 1564 1565 1566 1567 1568 1570 1571 1571 1572 1573 1574 1575 1575 1576 1576 1577 1578 1579 1580 1581 1581
1522 1524 1527 1529 1531 1533 1535 1537 1540 1542 1544 1546 1548 1551 1552 1554 1555 1557 1559 1560 1561 1562 1563 1564 1565 1566 1567 1568 1569 1570 1571 1572 1573 1574 1574 1575 1576 1577 1578 1579 1579 1580
1518 1521 1523 1525 1527 1530 1532 1534 1537 1539 1541 1544 1546 1548 1549 1551 1553 1554 1556 1557 1559 1560 1561 1562 1563 1564 1565 1566 1567 1568 1569 1570 1571 1572 1573 1573 1574 1575 1576 1577 1578 1579
1515 1517 1519 1522 1524 1527 1529 1531 1533 1536 1538 1540 1542 1545 1546 1548 1550 1551 1553 1554 1556 1557 1558 1559 1560 1562 1563 1564 1565 1566 1567 1568 1569 1570 1571 1572 1573 1574 1575 1576 1576 1577
1511 1513 1516 1518 1521 1523 1526 1527 1530 1532 1534 1536 1539 1541 1543 1545 1547 1548 1549 1551 1553 1554 1555 1556 1558 1559 1560 1561 1562 1563 1564 1566 1567 1568 1569 1570 1571 1572 1573 1574 1575 1576
1507 1509 1512 1515 1517 1520 1521 1524 1526 1528 1531 1533 1535 1537 1539 1541 1543 1545 1546 1548 1549 1551 1552 1553 1554 1556 1557 1559 1560 1561 1562 1563 1564 1566 1567 1568 1569 1570 1571 1572 1573 1574
1502 1505 1508 1511 1513 1515 1517 1520 1522 1524 1527 1529 1531 1533 1535 1537 1539 1541 1543 1544 1546 1547 1548 1550 1551 1553 1554 1556 1557 1558 1559 1561 1562 1563 1564 1566 1567 1568 1569 1570 1571 1572
1497 1500 1503 1506 1508 1510 1513 1515 1518 1521 1523 1526 1527 1529 1531 1533 1535 1537 1539 1541 1542 1544 1545 1547 1548 1549 1551 1553 1554 1555 1557 1558 1559 1560 1561 1563 1564 1565 1567 1568 1569 1570
1492 1495 1498 1500 1503 1505 1508 1511 1514 1516 1519 1521 1523 1525 1527 1529 1531 1533 1535 1537 1538 1540 1541 1543 1544 1546 1548 1549 1551 1552 1554 1555 1556 1557 1558 1560 1561 1563 1564 1566 1566 1567
1487 1490 1492 1495 1498 1500 1503 1506 1509 1512 1514 1516 1519 1521 1523 1525 1527 1529 1531 1533 1534 1535 1537 1539 1540 1542 1544 1546 1547 1549 1550 1552 1553 1554 1555 1556 1558 1560 1561 1563 1563 1564
1482 1485 1487 1489 1492 1495 1498 1502 1505 1507 1509 1511 1514 1516 1518 1520 1523 1525 1526 1528 1529 1531 1533 1534 1536 1538 1540 1542 1544 1545 1547 1548 1549 1551 1552 1553 1555 1556 1558 1559 1560 1561
1476 1479 1481 1484 1487 1490 1494 1497 1499 1502 1504 1506 1509 1511 1513 1515 1517 1520 1521 1523 1525 1527 1529 1530 1532 1534 1536 1538 1540 1542 1543 1544 1546 1547 1548 1550 1551 1553 1555 1556 1557 1558
1470 1473 1476 1479 1482 1485 1489 1491 1494 1496 1499 1501 1503 1505 1507 1509 1512 1514 1516 1518 1521 1523 1525 1526 1528 1530 1532 1534 1536 1537 1539 1540 1542 1543 1545 1546 1548 1550 1551 1552 1553 1554
1464 1468 1471 1474 1477 1480 1484 1486 1488 1491 1493 1496 1498 1500 1502 1504 1507 1510 1512 1514 1516 1519 1521 1522 1524 1526 1527 1529 1531 1533 1535 1536 1537 1539 1541 1543 1544 1546 1548 1549 1550 1550
1459 1463 1466 1469 1473 1475 1478 1480 1483 1486 1488 1491 1492 1494 1497 1499 1502 1505 1507 1509 1511 1514 1516 1518 1519 1520 1522 1524 1527 1528 1530 1532 1533 1535 1537 1539 1541 1543 1544 1545 1546 1546
1455 1458 1461 1464 1467 1470 1472 1475 1478 1480 1483 1485 1487 1490 1492 1495 1498 1500 1502 1504 1506 1509 1511 1512 1513 1515 1516 1519 1522 1524 1526 1528 1529 1531 1533 1535 1537 1539 1540 1541 1542 1543
1450 1454 1456 1459 1462 1464 1467 1470 1473 1475 1478 1481 1483 1485 1487 1490 1492 1495 1497 1499 1501 1503 1505 1507 1508 1509 1512 1515 1517 1520 1522 1524 1525 1528 1529 1531 1533 1535 1536 1537 1538 1539
1446 1449 1451 1453 1456 1459 1462 1466 1469 1471 1473 1476 1478 1480 1483 1485 1487 1489 1492 1495 1496 1498 1500 1501 1502 1504 1507 1510 1513 1515 1518 1520 1521 1524 1525 1527 1529 1530 1532 1533 1535 1536
1441 1444 1446 1449 1451 1455 1458 1461 1464 1466 1468 1470 1473 1475 1478 1480 1482 1484 1487 1489 1491 1493 1494 1496 1498 1499 1502 1505 1508 1511 1514 1515 1517 1519 1521 1523 1525 1526 1528 1529 1531 1532
1437 1439 1441 1444 1447 1450 1454 1456 1459 1461 1463 1466 1468 1471 1473 1474 1477 1480 1482 1484 1486 1488 1490 1491 1493 1494 1497 1500 1503 1506 1509 1511 1513 1515 1517 1519 1520 1522 1524 1525 1526 1527
1432 1434 1437 1440 1443 1446 1448 1451 1453 1455 1458 1461 1463 1466 1468 1470 1472 1475 1477 1479 1481 1483 1485 1486 1487 1489 1492 1496 1498 1501 1504 1507 1508 1510 1512 1514 1515 1517 1519 1520 1521 1523
1429 1432 1435 1438 1440 1443 1445 1447 1449 1450 1453 1456 1459 1462 1464 1466 1468 1469 1471 1474 1476 1478 1480 1480 1482 1484 1487 1490 1493 1496 1499 1501 1503 1505 1506 1508 1510 1512 1513 1514 1516 1518
1427 1430 1432 1434 1436 1438 1440 1442 1443 1445 1448 1451 1453 1456 1458 1460 1462 1464 1466 1468 1470 1472 1474 1475 1477 1479 1481 1485 1488 1491 1493 1495 1496 1499 1500 1502 1504 1506 1508 1509 1511 1513
1422 1424 1426 1428 1429 1431 1433 1435 1438 1440 1443 1445 1447 1450 1452 1454 1456 1459 1461 1462 1463 1465 1467 1469 1472 1473 1476 1479 1482 1485 1487 1488 1491 1494 1495 1497 1499 1501 1502 1504 1506 1508
1418 1419 1421 1423 1425 1426 1429 1432 1434 1437 1439 1441 1443 1445 1447 1450 1452 1454 1454 1455 1456 1458 1461 1464 1466 1468 1470 1473 1476 1479 1481 1483 1486 1489 1490 1492 1494 1496 1498 1499 1501 1503
1415 1416 1417 1420 1422 1424 1426 1429 1432 1433 1435 1437 1439 1441 1443 1446 1447 1447 1448 1449 1450 1452 1454 1457 1460 1462 1463 1466 1469 1472 1475 1479 1481 1483 1485 1487 1489 1491 1493 1494 1496 1498